EHI
0 0 0 0 0 0 0 0 0 0 0 0 0 0 0 0 0 0 0 0 0 0 0 0 0 0 0 0 0 0 0 0 0 0 0 0 0 0 0 0 0 0 0 0
0 0 0 0 0 0 0 0 0 0 0 0 0 0 0 0 0 0 0 0 0 0 0 0 0 0 0 0 0 0 0 0 0 0 0 0 0 0 0 0 0 0 0 0
0 0 0 0 0 0 0 0 0 0 0 0 0 0 0 0 0 0 0 0 0 0 0 0 0 0 0 0 0 0 0 0 0 0 0 0 0 0 0 0 0 0 0 0
0 0 0 0 0 0 0 0 0 0 0 0 0 0 0 0 0 0 0 0 0 0 0 0 0 0 0 0 0 0 0 0 0 0 0 0 0 0 0 0 0 0 0 0
0 0 0 0 0 0 0 0 0 0 0 0 0 0 0 0 0 0 0 0 0 0 0 0 0 0 0 0 0 0 0 0 0 0 0 0 0 0 0 0 0 0 0 0
0 0 0 0 0 0 0 0 0 0 0 0 0 0 0 0 0 0 0 0 0 0 0 0 0 0 0 0 0 0 0 0 0 0 0 0 0 0 0 0 0 0 0 0
0 0 0 0 0 0 0 0 0 0 0 0 0 0 0 0 0 0 0 0 0 0 0 0 0 0 0 0 0 0 0 0 0 0 0 0 0 0 0 0 0 0 0 0
0 0 0 0 0 0 0 0 0 0 0 0 0 0 0 0 0 0 0 0 0 0 0 0 0 0 0 0 0 0 0 0 0 0 0 0 0 0 0 0 0 0 0 0
0 0 0 0 0 0 0 0 0 0 0 0 0 0 0 0 0 0 0 0 0 0 0 0 0 0 0 0 0 0 0 0 0 0 0 0 0 0 0 0 0 0 0 0
0 0 0 0 0 0 0 0 0 0 0 0 0 0 0 0 0 0 0 0 0 0 0 0 0 0 0 0 0 0 0 0 0 0 0 0 0 0 0 0 0 0 0 0
0 0 0 0 0 0 0 0 0 0 0 0 0 0 0 0 0 0 0 0 0 0 0 0 0 0 0 0 0 0 0 0 0 0 0 0 0 0 0 0 0 0 0 0
0 0 0 0 0 0 0 0 0 0 0 0 0 0 0 0 0 0 0 0 0 0 0 0 0 0 0 0 0 0 0 0 0 0 0 0 0 0 0 0 0 0 0 0
0 0 0 0 0 0 0 0 0 0 0 0 0 0 0 0 0 0 0 0 0 0 0 0 0 0 0 0 0 0 0 0 0 0 0 0 0 0 0 0 0 0 0 0
0 0 0 0 0 0 0 0 0 0 0 0 0 0 0 0 0 0 0 0 0 0 0 0 0 0 0 0 0 0 0 0 0 0 0 0 0 0 0 0 0 0 0 0
0 0 0 0 0 0 0 0 0 0 0 0 0 0 0 0 0 0 0 0 0 0 0 0 0 0 0 0 0 0 0 0 0 0 0 0 0 0 0 0 0 0 0 0
0 0 0 0 0 0 0 0 0 0 0 0 0 0 0 0 0 0 0 0 0 0 0 0 0 0 0 0 0 0 0 0 0 0 0 0 0 0 0 0 0 0 0 0
0 0 0 0 0 0 0 0 0 0 0 0 0 0 0 0 0 0 0 0 0 0 0 0 0 0 0 0 0 0 0 0 0 0 0 0 0 0 0 0 0 0 0 0
0 0 0 0 0 0 0 0 0 0 0 0 0 0 0 0 0 0 0 0 0 0 0 0 0 0 0 0 0 0 0 0 0 0 0 0 0 0 0 0 0 0 0 0
0 0 0 0 0 0 0 0 0 0 0 0 0 0 0 0 0 0 0 0 0 0 0 0 0 0 0 0 0 0 0 0 0 0 0 0 0 0 0 0 0 0 0 0
0 0 0 0 0 0 0 0 0 0 0 0 0 0 0 0 0 0 0 0 0 0 0 0 0 0 0 0 0 0 0 0 0 0 0 0 0 0 0 0 0 0 0 0
0 0 0 0 0 0 0 0 0 0 0 0 0 0 0 0 0 0 0 0 0 0 0 0 0 0 0 0 0 0 0 0 0 0 0 0 0 0 0 0 0 0 0 0
0 0 0 0 0 0 0 0 0 0 0 0 0 0 0 0 0 0 0 0 0 0 0 0 0 0 0 0 0 0 0 0 0 0 0 0 0 0 0 0 0 0 0 0
0 0 0 0 0 0 0 0 0 0 0 0 0 0 0 0 0 0 0 0 0 0 0 0 0 0 0 0 0 0 0 0 0 0 0 0 0 0 0 0 0 0 0 0
0 0 0 0 0 0 0 0 0 0 0 0 0 0 0 0 0 0 0 0 0 0 0 0 0 0 0 0 0 0 0 0 0 0 0 0 0 0 0 0 0 0 0 0
0 0 0 0 0 0 0 0 0 0 0 0 0 0 0 0 0 0 0 0 0 0 0 0 0 0 0 0 0 0 0 0 0 0 0 0 0 0 0 0 0 0 0 0
0 0 0 0 0 0 0 0 0 0 0 0 0 0 0 0 0 0 0 0 0 0 0 0 0 0 0 0 0 0 0 0 0 0 0 0 0 0 0 0 0 0 0 0
Wind_Speed
6 8 8 7 6 4 4 5 6 4 4 5 11 13 9 6 6 9 10 11 13 14 14 14 15 17 18 18 19 20 20 19 16 14 14 14 14 13 12 12 16 17 16 16
6 11 8 4 2 5 6 6 5 6 5 4 10 9 7 5 6 7 9 10 12 14 15 15 15 15 17 17 18 18 19 18 17 14 14 13 14 12 12 12 14 16 18 17
11 7 5 6 6 4 3 1 3 7 6 5 8 9 9 6 3 3 5 7 11 13 15 14 14 16 16 16 17 16 18 18 17 17 13 13 12 11 11 14 12 15 18 18
10 6 4 6 7 5 2 3 2 9 8 5 8 5 11 8 3 2 5 9 11 13 14 14 14 16 17 16 15 17 17 17 17 17 15 17 14 14 16 14 13 17 17 17
6 4 6 6 5 6 5 3 3 8 5 3 7 7 7 8 5 2 7 10 12 12 13 14 14 14 15 16 15 15 17 17 17 17 17 16 15 14 13 15 17 16 15 16
5 3 4 5 3 2 3 3 5 5 5 6 4 7 4 6 2 4 8 11 13 12 13 13 12 13 14 14 14 15 17 17 17 18 18 18 18 18 18 18 17 15 13 14
3 3 4 4 3 1 4 5 4 3 5 1 3 6 1 8 3 5 9 12 13 12 12 12 13 14 14 16 15 15 17 17 18 18 18 18 18 19 18 18 17 17 14 14
1 2 6 6 6 5 6 7 6 7 8 4 4 4 6 6 2 5 8 11 12 12 12 12 13 13 14 15 15 16 17 17 18 18 18 17 18 14 13 17 16 16 14 15
2 2 3 4 4 3 2 2 4 5 5 8 5 4 6 4 0 6 10 12 13 12 11 12 12 12 14 15 16 16 17 17 17 17 18 17 17 16 16 17 16 14 15 16
2 1 1 1 3 4 4 1 3 5 8 9 7 4 3 6 3 8 12 13 13 11 10 12 11 12 13 14 15 15 16 16 16 17 16 14 16 16 17 16 17 18 19 19
1 3 1 2 0 1 1 1 1 2 5 7 10 4 7 4 4 9 12 13 13 11 11 12 12 12 13 14 14 15 15 16 16 16 16 16 16 16 17 16 17 18 18 19
1 3 3 1 3 1 1 0 2 5 5 6 8 2 10 4 4 8 12 13 12 10 11 12 12 12 13 14 14 15 15 15 15 16 16 16 16 16 17 17 18 18 19 18
1 4 4 3 4 4 2 2 2 3 5 6 7 2 9 2 6 10 13 14 10 10 12 12 12 12 13 14 14 14 15 15 15 15 15 15 16 17 17 17 18 18 18 18
1 4 5 6 5 1 3 5 5 6 6 7 8 8 2 7 10 13 13 11 10 11 12 12 12 12 13 14 14 14 15 14 15 15 15 15 16 17 17 17 17 18 18 18
2 4 3 5 2 4 7 8 9 11 10 9 8 6 10 6 10 12 12 10 10 13 13 12 13 14 14 14 14 14 14 14 15 15 15 15 16 16 16 16 17 17 17 17
0 2 3 4 2 4 8 10 11 11 10 11 11 10 2 6 9 13 11 8 11 13 13 13 14 14 15 15 15 14 14 14 14 14 14 15 15 16 16 16 16 17 17 17
2 2 4 4 4 8 8 6 10 7 8 7 7 5 4 9 11 12 7 6 11 12 12 13 13 13 14 14 14 15 15 15 14 14 14 15 15 16 16 16 16 16 16 17
3 2 2 5 6 7 2 1 5 7 6 7 6 5 4 8 9 3 2 7 11 11 11 12 12 13 13 13 14 14 14 14 14 14 14 15 15 15 16 16 15 15 14 14
1 3 1 2 5 10 3 5 5 5 5 5 5 3 4 6 8 4 2 5 8 9 10 10 11 12 13 13 14 14 14 14 14 15 15 15 15 16 16 16 15 14 14 14
2 2 3 3 5 8 2 6 5 2 5 7 5 2 4 6 8 4 3 5 7 8 9 10 11 12 12 12 13 14 15 15 15 16 17 17 16 16 16 16 15 14 14 14
5 5 5 6 7 10 5 9 7 4 2 8 4 1 1 3 3 3 2 5 6 8 9 10 11 11 11 12 13 14 15 15 16 17 17 17 16 16 15 14 14 14 13 13
7 7 7 6 7 8 11 11 8 1 7 6 4 3 2 1 1 2 3 5 7 9 10 11 11 12 11 11 13 14 15 16 16 17 17 16 16 14 12 14 13 13 12 12
8 7 4 10 5 4 10 6 4 6 6 5 5 5 4 3 2 2 3 5 7 8 9 9 11 13 12 12 12 14 15 16 16 16 16 15 16 14 13 13 13 11 11 9
6 4 6 9 8 5 9 6 7 6 6 7 7 7 6 5 4 2 3 5 7 8 9 10 11 12 13 13 13 13 14 15 16 16 16 14 14 14 14 11 10 10 10 10
6 9 7 9 4 4 8 10 9 8 10 10 9 7 6 6 4 1 3 5 6 7 8 9 10 12 13 14 14 14 14 15 16 16 15 14 13 13 12 12 10 11 9 11
10 12 10 6 7 7 7 12 13 12 11 10 10 8 6 5 4 1 3 4 6 7 9 10 11 12 13 13 14 14 14 15 16 14 14 12 11 11 11 11 11 13 13 15
Wind_Direction
33 59 45 17 359 29 97 129 131 114 111 109 129 134 129 118 84 62 45 33 23 18 13 11 6 4 359 358 358 355 352 350 350 351 347 342 340 338 336 338 336 334 334 333
91 55 25 13 60 124 123 133 130 116 118 124 144 145 141 125 79 51 33 22 14 6 2 2 360 0 357 357 357 354 352 348 349 350 342 337 331 331 334 335 333 333 332 330
77 41 15 44 67 120 138 285 213 159 129 139 161 183 185 159 127 66 26 10 8 4 355 353 354 358 357 357 356 352 351 348 348 347 341 337 333 332 336 336 333 332 329 326
72 46 37 53 45 347 241 358 247 164 178 171 212 258 172 181 181 34 11 3 358 356 352 352 354 356 355 354 352 350 349 348 348 347 344 342 338 337 335 332 328 328 327 325
81 40 35 35 13 344 349 2 184 187 214 194 202 263 139 178 222 346 3 356 352 350 351 351 354 353 352 351 350 349 348 348 349 348 346 341 338 335 330 330 328 329 327 325
90 73 28 358 327 344 313 156 125 166 215 249 183 232 162 175 201 352 355 350 349 350 349 348 349 351 351 351 350 349 348 349 349 347 346 343 339 336 333 334 332 330 326 325
117 81 39 357 325 56 357 299 268 242 229 263 130 235 105 129 96 6 347 345 347 349 347 345 348 350 351 350 350 349 348 347 348 346 346 342 340 336 333 333 330 329 326 326
218 103 35 19 12 349 11 346 352 317 315 316 197 252 131 146 88 0 348 343 346 347 348 345 347 349 349 349 349 349 347 345 346 345 343 341 341 336 331 330 328 326 324 323
10 80 82 42 23 320 326 40 354 286 275 271 245 146 155 183 310 349 346 348 353 346 344 343 347 349 349 348 348 347 344 342 343 342 341 340 340 337 333 329 328 326 324 322
355 276 90 347 214 69 32 81 254 297 316 304 292 249 181 163 344 347 349 352 350 347 345 346 349 350 349 347 345 345 343 341 340 340 340 337 338 336 333 330 330 329 327 326
303 277 177 192 238 12 143 138 41 296 293 297 307 1 97 104 11 350 351 355 350 349 349 348 349 348 346 344 344 344 343 341 340 340 339 338 338 337 335 334 332 330 329 329
13 284 262 161 80 353 297 261 256 296 292 258 283 335 121 86 11 353 352 356 355 352 348 346 347 345 343 343 343 342 341 340 339 338 337 337 338 338 338 337 334 333 332 333
203 268 283 185 163 158 165 164 216 268 275 253 261 329 137 22 351 357 356 353 351 348 345 345 346 344 342 341 340 339 339 338 336 337 336 338 340 341 340 338 336 336 336 336
203 263 278 313 346 79 219 212 206 223 247 257 250 292 244 339 348 350 352 350 347 348 344 345 343 342 341 339 337 336 336 336 335 335 336 338 339 339 337 336 336 338 338 338
262 270 274 281 282 262 262 252 226 226 243 265 291 295 321 353 344 341 348 350 347 344 343 345 341 340 338 336 334 334 332 333 333 332 334 334 334 334 334 333 336 338 338 338
34 274 290 267 202 275 266 250 238 238 243 252 274 292 41 335 330 338 350 348 341 341 342 342 339 337 335 333 330 330 327 329 328 328 329 330 331 331 331 330 335 337 336 336
145 250 290 280 308 293 268 235 213 217 218 233 267 322 344 322 336 340 348 344 339 340 340 338 335 332 329 327 325 323 324 323 323 325 325 325 327 328 327 328 332 334 334 334
164 183 260 300 315 279 83 68 219 225 236 226 253 286 305 325 331 355 20 344 340 339 333 330 328 325 323 322 320 319 320 318 320 321 322 323 324 322 323 327 328 331 332 330
309 218 213 271 281 273 183 183 182 218 256 202 215 243 314 331 297 182 112 349 337 333 327 325 324 321 320 321 322 321 319 321 321 320 321 321 321 319 321 322 324 331 331 327
87 214 213 187 260 271 111 139 141 203 249 166 189 269 320 322 315 26 64 344 338 330 329 325 322 321 321 325 324 321 322 325 325 324 320 319 320 322 322 319 324 327 327 329
186 189 206 216 243 270 119 137 156 227 39 145 183 245 310 306 332 27 16 353 340 332 332 328 324 323 325 326 324 323 324 327 326 322 319 320 324 325 321 322 324 323 324 327
201 192 205 197 230 260 140 155 195 117 117 155 158 137 144 135 86 39 13 351 339 335 333 331 326 323 326 330 329 324 326 327 323 321 323 326 327 327 324 326 325 325 326 326
221 217 215 208 231 73 166 171 142 132 150 151 142 133 135 140 109 45 358 338 335 332 330 329 324 322 328 336 333 326 326 326 325 325 327 328 328 328 329 330 330 330 328 325
220 210 235 253 254 201 187 161 145 141 130 125 126 130 134 134 116 60 339 335 334 331 330 328 325 327 331 334 332 328 327 328 326 328 329 330 329 330 333 334 335 331 326 322
220 180 220 248 235 168 186 180 153 127 125 124 120 122 129 133 127 113 317 326 329 327 328 327 329 327 328 331 331 332 333 332 331 331 332 331 331 336 339 343 342 340 338 339
195 193 197 225 183 172 169 162 148 143 144 140 134 131 125 129 134 157 305 318 322 325 326 327 328 328 329 329 330 335 338 337 335 335 336 335 338 343 345 344 345 352 353 355